This is the latest recevied weather packets stored in our database for station/object KJ6LNH-1. If no packets are shown the sender has not sent any weather packets the latest 10 day(s).
| Time | Temp. | Humidity | Pressure | Rain* | Wind** | Luminosity | Snow |
|---|---|---|---|---|---|---|---|
| 1777498808 | 27.78° C | 31% | 1015 hPa | 0 mm | - | - | - |
| 1777498207 | 27.22° C | 32% | 1015.1 hPa | 0 mm | - | - | - |
| 1777497908 | 27.22° C | 32% | 1015.1 hPa | 0 mm | - | - | - |
| 1777497608 | 27.78° C | 30% | 1015.1 hPa | 0 mm | - | - | - |
| 1777497008 | 27.78° C | 30% | 1015.3 hPa | 0 mm | - | - | - |
| 1777496708 | 27.22° C | 28% | 1015.2 hPa | 0 mm | - | - | - |
| 1777496407 | 27.22° C | 30% | 1015.3 hPa | 0 mm | - | - | - |
| 1777496107 | 27.22° C | 32% | 1015.3 hPa | 0 mm | - | - | - |
| 1777495807 | 26.67° C | 32% | 1015.4 hPa | 0 mm | - | - | - |
| 1777495507 | 26.67° C | 32% | 1015.4 hPa | 0 mm | - | - | - |
| 1777495208 | 26.67° C | 33% | 1015.5 hPa | 0 mm | - | - | - |
| 1777494908 | 26.67° C | 32% | 1015.5 hPa | 0 mm | - | - | - |
| 1777494608 | 26.67° C | 35% | 1015.5 hPa | 0 mm | - | - | - |
| 1777494007 | 26.11° C | 37% | 1015.7 hPa | 0 mm | - | - | - |
| 1777493707 | 26.11° C | 37% | 1015.7 hPa | 0 mm | - | - | - |
| 1777493408 | 26.11° C | 37% | 1015.7 hPa | 0 mm | - | - | - |
| 1777492807 | 26.67° C | 37% | 1015.8 hPa | 0 mm | - | - | - |
| 1777492507 | 26.11° C | 37% | 1015.9 hPa | 0 mm | - | - | - |
| 1777492207 | 26.67° C | 37% | 1015.9 hPa | 0 mm | - | - | - |
| 1777491908 | 26.11° C | 38% | 1016 hPa | 0 mm | - | - | - |
| 1777491607 | 26.11° C | 38% | 1016 hPa | 0 mm | - | - | - |
| 1777490708 | 26.11° C | 39% | 1016.3 hPa | 0 mm | - | - | - |
| 1777490409 | 26.11° C | 39% | 1016.4 hPa | 0 mm | - | - | - |
| 1777489809 | 25.56° C | 40% | 1016.4 hPa | 0 mm | - | - | - |
| 1777489507 | 26.11° C | 39% | 1016.5 hPa | 0 mm | - | - | - |
* Rain latest hour (hover to see other rain measurements)
** Current wind speed in m/s (hover to see current wind gust speed)